Weather History for New Ulm, MN

Change the Weather History Date:

Tuesday, July 16, 2013

  Actual Average Record
Temperature  
Mean Temperature 79 °F -  
Max Temperature 89 °F 86 °F 96 °F (2012)
Min Temperature 69 °F 61 °F 45 °F (1958)
Cooling Degree Days 14    
Growing Degree Days 29 (Base 50)    
Moisture  
Dew Point 70 °F    
Average Humidity 74    
Maximum Humidity 100    
Minimum Humidity 46    
Precipitation  
Precipitation 0.00 in - - ()
Sea Level Pressure  
Sea Level Pressure 30.20 in    
Wind  
Wind Speed 7 mph (SSW)    
Max Wind Speed 14 mph    
Max Gust Speed 21 mph    
Visibility 10 miles    
Events      
Averages and records for this station are not official NWS values.
T = Trace of Precipitation, MM = Missing Value Source: NWS Daily Summary

Daily Weather History Graph

Daily Weather History Graph

Search for Another Location

Airport:

Trip Planner

Search our weather history database for the weather conditions in past years. The results will help you decide how hot, cold, wet, or windy it might be!

Date:

Astronomy

Jul. 16, 2013 Rise Set
Actual Time 5:49 AM CDT 8:58 PM CDT
Civil Twilight 5:14 AM CDT 9:33 PM CDT
Nautical Twilight 4:28 AM CDT 10:18 PM CDT
Astronomical Twilight 3:33 AM CDT 11:13 PM CDT
Moon 2:35 PM CDT (7/16) 12:26 AM CDT (7/16)
Length of Visible Light 16h 19m
Length of Day
15h 09m
First Quarter, 56% of the Moon is Illuminated
Jul 16
First Quarter
Jul 22
Full
Jul 29
Last Quarter
Aug 6
New
Aug 14
First Quarter

Hourly Weather History & Observations

Time (CDT) Temp. Heat Index Dew Point Humidity Pressure Visibility Wind Dir Wind Speed Gust Speed Precip Events Conditions
12:12 AM 75.2 °F - 71.6 °F 89% 30.17 in 10.0 mi SSE 6.9 mph - N/A   Clear
12:33 AM 75.2 °F - 71.6 °F 89% 30.17 in 10.0 mi SSE 5.8 mph - N/A   Clear
12:53 AM 73.4 °F - 71.6 °F 94% 30.17 in 10.0 mi SSE 4.6 mph - N/A   Clear
1:12 AM 73.4 °F - 71.6 °F 94% 30.18 in 10.0 mi South 4.6 mph - N/A   Clear
1:33 AM 73.4 °F - 71.6 °F 94% 30.18 in 10.0 mi South 5.8 mph - N/A   Clear
1:53 AM 73.4 °F - 71.6 °F 94% 30.18 in 10.0 mi South 3.5 mph - N/A   Clear
2:12 AM 71.6 °F - 71.6 °F 100% 30.18 in 10.0 mi South 4.6 mph - N/A   Clear
2:33 AM 71.6 °F - 71.6 °F 100% 30.17 in 10.0 mi South 5.8 mph - N/A   Clear
2:53 AM 71.6 °F - 71.6 °F 100% 30.17 in 10.0 mi South 4.6 mph - N/A   Clear
3:12 AM 71.6 °F - 71.6 °F 100% 30.17 in 10.0 mi South 4.6 mph - N/A   Clear
3:33 AM 71.6 °F - 71.6 °F 100% 30.17 in 10.0 mi South 4.6 mph - N/A   Clear
3:53 AM 71.6 °F - 69.8 °F 94% 30.17 in 10.0 mi South 3.5 mph - N/A   Clear
4:13 AM 69.8 °F - 69.8 °F 100% 30.17 in 10.0 mi South 4.6 mph - N/A   Clear
4:33 AM 71.6 °F - 71.6 °F 100% 30.17 in 10.0 mi South 4.6 mph - N/A   Clear
4:52 AM 69.8 °F - 69.8 °F 100% 30.18 in 10.0 mi South 4.6 mph - N/A   Clear
5:13 AM 71.6 °F - 71.6 °F 100% 30.18 in 10.0 mi South 5.8 mph - N/A   Clear
5:33 AM 71.6 °F - 71.6 °F 100% 30.18 in 10.0 mi South 8.1 mph - N/A   Clear
5:52 AM 71.6 °F - 71.6 °F 100% 30.18 in 10.0 mi South 6.9 mph - N/A   Clear
6:13 AM 71.6 °F - 71.6 °F 100% 30.19 in 7.0 mi South 6.9 mph - N/A   Clear
6:33 AM 71.6 °F - 71.6 °F 100% 30.19 in 7.0 mi South 6.9 mph - N/A   Clear
6:52 AM 71.6 °F - 71.6 °F 100% 30.19 in 10.0 mi South 8.1 mph - N/A   Clear
7:13 AM 73.4 °F - 71.6 °F 94% 30.20 in 10.0 mi South 6.9 mph - N/A   Clear
7:32 AM 73.4 °F - 71.6 °F 94% 30.20 in 10.0 mi South 8.1 mph - N/A   Clear
7:53 AM 75.2 °F - 73.4 °F 94% 30.21 in 10.0 mi SSW 6.9 mph - N/A   Clear
8:13 AM 77.0 °F - 73.4 °F 89% 30.21 in 10.0 mi SSW 5.8 mph - N/A   Clear
8:32 AM 78.8 °F - 73.4 °F 83% 30.22 in 10.0 mi SSW 8.1 mph - N/A   Clear
8:53 AM 78.8 °F - 73.4 °F 83% 30.22 in 10.0 mi SSW 6.9 mph - N/A   Clear
9:13 AM 80.6 °F 85.4 °F 73.4 °F 79% 30.22 in 10.0 mi SSW 6.9 mph - N/A   Clear
9:32 AM 80.6 °F 85.4 °F 73.4 °F 79% 30.22 in 10.0 mi SSW 8.1 mph - N/A   Clear
9:53 AM 82.4 °F 88.2 °F 73.4 °F 74% 30.22 in 10.0 mi SSW 9.2 mph - N/A   Clear
10:13 AM 82.4 °F 88.2 °F 73.4 °F 74% 30.22 in 10.0 mi SSW 9.2 mph - N/A   Clear
10:32 AM 82.4 °F 88.2 °F 73.4 °F 74% 30.22 in 10.0 mi SSW 10.4 mph - N/A   Clear
10:53 AM 84.2 °F 89.6 °F 71.6 °F 66% 30.22 in 10.0 mi SSW 10.4 mph - N/A   Clear
11:13 AM 84.2 °F 89.6 °F 71.6 °F 66% 30.22 in 10.0 mi SW 8.1 mph - N/A   Clear
11:32 AM 84.2 °F 88.4 °F 69.8 °F 62% 30.22 in 10.0 mi SW 9.2 mph - N/A   Clear
11:53 AM 86.0 °F 90.4 °F 69.8 °F 58% 30.22 in 10.0 mi WSW 10.4 mph - N/A   Clear
12:13 PM 87.8 °F 92.6 °F 69.8 °F 55% 30.22 in 10.0 mi SW 5.8 mph 9.2 mph N/A   Clear
12:32 PM 87.8 °F 92.6 °F 69.8 °F 55% 30.22 in 10.0 mi SW 10.4 mph - N/A   Clear
12:53 PM 87.8 °F 92.6 °F 69.8 °F 55% 30.22 in 10.0 mi WSW 10.4 mph - N/A   Clear
1:13 PM 87.8 °F 92.6 °F 69.8 °F 55% 30.22 in 10.0 mi SSW 10.4 mph - N/A   Clear
1:33 PM 87.8 °F 91.4 °F 68.0 °F 52% 30.22 in 10.0 mi SW 11.5 mph - N/A   Clear
1:53 PM 89.6 °F 93.4 °F 68.0 °F 49% 30.21 in 10.0 mi SSW 13.8 mph 18.4 mph N/A   Clear
2:13 PM 89.6 °F 94.7 °F 69.8 °F 52% 30.21 in 10.0 mi SW 10.4 mph - N/A   Clear
2:33 PM 89.6 °F 94.7 °F 69.8 °F 52% 30.21 in 10.0 mi SSW 8.1 mph - N/A   Clear
2:53 PM 87.8 °F 91.4 °F 68.0 °F 52% 30.21 in 10.0 mi SW 8.1 mph - N/A   Clear
3:13 PM 89.6 °F 94.7 °F 69.8 °F 52% 30.21 in 10.0 mi WSW 8.1 mph 20.7 mph N/A   Scattered Clouds
3:33 PM 89.6 °F 94.7 °F 69.8 °F 52% 30.21 in 10.0 mi WSW 10.4 mph - N/A   Scattered Clouds
3:53 PM 89.6 °F 93.4 °F 68.0 °F 49% 30.20 in 10.0 mi SW 9.2 mph - N/A   Clear
4:12 PM 89.6 °F 92.2 °F 66.2 °F 46% 30.20 in 10.0 mi WSW 10.4 mph 16.1 mph N/A   Clear
4:33 PM 89.6 °F 93.4 °F 68.0 °F 49% 30.19 in 10.0 mi SW 12.7 mph 17.3 mph N/A   Clear
4:53 PM 89.6 °F 93.4 °F 68.0 °F 49% 30.20 in 10.0 mi SSW 8.1 mph - N/A   Clear
5:12 PM 87.8 °F 90.4 °F 66.2 °F 49% 30.20 in 10.0 mi SW 11.5 mph - N/A   Clear
5:33 PM 89.6 °F 93.4 °F 68.0 °F 49% 30.19 in 10.0 mi SSW 9.2 mph - N/A   Clear
5:53 PM 89.6 °F 93.4 °F 68.0 °F 49% 30.19 in 10.0 mi SW 9.2 mph - N/A   Clear
6:12 PM 89.6 °F 93.4 °F 68.0 °F 49% 30.19 in 10.0 mi SW 6.9 mph - N/A   Clear
6:33 PM 87.8 °F 91.4 °F 68.0 °F 52% 30.19 in 10.0 mi SW 6.9 mph - N/A   Clear
6:53 PM 87.8 °F 91.4 °F 68.0 °F 52% 30.19 in 10.0 mi SW 5.8 mph - N/A   Clear
7:12 PM 87.8 °F 91.4 °F 68.0 °F 52% 30.19 in 10.0 mi SW 6.9 mph - N/A   Clear
7:33 PM 86.0 °F 90.4 °F 69.8 °F 58% 30.19 in 10.0 mi SW 5.8 mph - N/A   Clear
7:53 PM 84.2 °F 88.4 °F 69.8 °F 62% 30.19 in 10.0 mi SW 4.6 mph - N/A   Clear
8:13 PM 82.4 °F 86.3 °F 69.8 °F 66% 30.19 in 10.0 mi SSW 4.6 mph - N/A   Clear
8:33 PM 82.4 °F 86.3 °F 69.8 °F 66% 30.20 in 10.0 mi SW 3.5 mph - N/A   Clear
8:53 PM 80.6 °F 83.9 °F 69.8 °F 70% 30.20 in 10.0 mi SSW 3.5 mph - N/A   Clear
9:13 PM 80.6 °F 83.9 °F 69.8 °F 70% 30.20 in 10.0 mi SSW 3.5 mph - N/A   Clear
9:33 PM 80.6 °F 83.2 °F 68.0 °F 65% 30.21 in 10.0 mi SSW 5.8 mph - N/A   Clear
9:52 PM 78.8 °F - 68.0 °F 69% 30.22 in 10.0 mi SSW 4.6 mph - N/A   Clear
10:13 PM 77.0 °F - 68.0 °F 74% 30.23 in 10.0 mi SW 4.6 mph - N/A   Clear
10:33 PM 77.0 °F - 68.0 °F 74% 30.23 in 10.0 mi SSW 5.8 mph - N/A   Clear
10:52 PM 77.0 °F - 68.0 °F 74% 30.23 in 10.0 mi SW 4.6 mph - N/A   Clear
11:13 PM 73.4 °F - 68.0 °F 83% 30.23 in 10.0 mi Calm Calm - N/A   Clear
11:33 PM 75.2 °F - 66.2 °F 73% 30.23 in 10.0 mi SSW 3.5 mph - N/A   Clear
11:52 PM 75.2 °F - 68.0 °F 78% 30.23 in 10.0 mi SSW 4.6 mph - N/A   Clear